Home   Weather   Belleville   Past weeks

Flag for Canada Past Weather in Belleville, Ontario, Canada — Yesterday and Last 2 Weeks

Now
23 °F

Ice fog.


Feels Like: 16 °F
Forecast: 22 / 34 °F
Wind: 6 mph from Northeast

Location: Trenton

Current Time: Jan 17, 2017 at 8:20:20 am

Latest Report: Jan 17, 2017 at 7:00 am


Visibility: 2 mi

Pressure: 30.17 "Hg

Humidity: 100%

Dew Point: 23 °F

Location of BellevilleLocation

Past Weather in Belleville — Graph

°F

Belleville Temperature Yesterday

Maximum temperature yesterday: 37 °F (at 12:00 pm)
Minimum temperature yesterday: 18 °F (at 12:00 am)
Average temperature yesterday: 29 °F

High & Low Weather Summary for the Past Weeks

 TemperatureHumidityPressure
High46 °F (Jan 12, 1:18 am)100% (Jan 3, 6:24 am)30.81 "Hg (Jan 3, 6:24 am)
Low1 °F (Jan 9, 1:00 am)43% (Jan 13, 12:00 pm)29.37 "Hg (Jan 4, 4:00 am)
Average26 °F81%30.11 "Hg
* Reported Jan 2 7:00 am — Jan 17 7:00 am, Belleville, Weather by CustomWeather, © 2017

Note: Actual official high and low records may vary slightly from our data, if they occured in-between our weather recording intervals... More about our weather records

Advertising

Belleville Weather History for the Previous 24 Hours

Scroll right to see more
 ConditionsComfort  
Time TempWeatherWind HumidityBarometerVisibility
7:00 am
Tue, Jan 17
23 °FIce fog.6 mph100%30.17 "Hg2 mi
6:00 am23 °FIce fog.5 mph93%30.19 "Hg3 mi
5:00 am23 °FIce fog.3 mph93%30.21 "Hg2 mi
4:00 am23 °FIce fog.No wind93%30.22 "Hg2 mi
3:00 am23 °FIce fog.6 mph93%30.24 "Hg2 mi
2:00 am21 °FIce fog.7 mph93%30.24 "Hg2 mi
1:00 am25 °FIce fog.2 mph93%30.23 "Hg3 mi
12:00 am21 °FIce fog.5 mph93%30.24 "Hg3 mi
11:00 pm
Mon, Jan 16
25 °FIce fog.No wind93%30.24 "Hg6 mi
10:00 pm27 °FIce fog.2 mph86%30.25 "Hg5 mi
9:00 pm28 °FIce fog.2 mph86%30.26 "Hg5 mi
8:10 pm32 °FIce fog.5 mph87%30.26 "Hg6 mi
8:00 pm32 °FPassing clouds.5 mph80%30.26 "Hg8 mi
7:00 pm32 °FPassing clouds.9 mph87%30.26 "Hg8 mi
6:00 pm34 °FPassing clouds.6 mph81%30.27 "Hg8 mi
5:00 pm34 °FMostly cloudy.8 mph81%30.27 "Hg15 mi
4:00 pm36 °FMostly cloudy.8 mph70%30.27 "Hg15 mi
3:00 pm36 °FMostly cloudy.9 mph70%30.27 "Hg15 mi
2:00 pm36 °FMostly cloudy.14 mph75%30.27 "Hg15 mi
1:00 pm37 °FHigh level clouds.16 mph70%30.28 "Hg15 mi
12:00 pm37 °FHigh level clouds.14 mph65%30.30 "Hg15 mi
11:00 am36 °FPartly sunny.14 mph70%30.34 "Hg15 mi
10:00 am32 °FPartly sunny.12 mph87%30.35 "Hg12 mi
9:00 am30 °FPartly sunny.7 mph80%30.35 "Hg9 mi
8:00 am28 °FPartly sunny.6 mph80%30.34 "Hg7 mi
Weather by CustomWeather, © 2017

See weather overviewHow to use our weather pages